Home   Weather   Changchun   Past weeks

Flag for China Past Weather in Changchun, Jilin, China — Yesterday and Last 2 Weeks

Now
68 °F

Scattered clouds.


Feels Like: 68 °F
Forecast: 42 / 64 °F
Wind: 6 mph from Southwest

Location: Changchun Airport

Current Time: Sep 26, 2016 at 11:54:24 AM

Latest Report: Sep 26, 2016 at 11:00 AM


Visibility: 4 mi

Pressure: 30.04 "Hg

Humidity: 73%

Dew Point: 59 °F

Location of ChangchunLocation

Past Weather in Changchun — Graph

°F

Changchun Temperature Yesterday

Maximum temperature yesterday: 68 °F (at 12:00 PM)
Minimum temperature yesterday: 48 °F (at 10:00 PM)
Average temperature yesterday: 59 °F

High & Low Weather Summary for the Past Weeks

 TemperatureHumidityPressure
High77 °F (Sep 14, 2:00 PM)94% (Sep 12, 1:00 AM)30.18 "Hg (Sep 12, 1:00 AM)
Low43 °F (Sep 19, 4:00 AM)22% (Sep 20, 1:00 PM)29.68 "Hg (Sep 24, 6:00 PM)
Average62 °F71%30.04 "Hg
* Reported Sep 11 10:00 AM — Sep 26 10:00 AM, Changchun, Weather by CustomWeather, © 2016

Note: Actual official high and low records may vary slightly from our data, if they occured in-between our weather recording intervals... More about our weather records

Advertising

Changchun Weather History for the Previous 24 Hours

Scroll right to see more
 ConditionsComfort  
Time TempWeatherWind HumidityBarometerVisibility
10:00 AM
Mon, Sep 26
64 °FScattered clouds.6 mph78%30.07 "HgN/A
9:00 AM63 °FSunny.6 mph73%30.07 "Hg10 mi
8:00 AM57 °FPassing clouds.6 mph77%30.07 "HgN/A
7:00 AM54 °FClear.6 mph88%30.04 "Hg4 mi
6:00 AM50 °FFog.3 mph94%30.07 "Hg2 mi
5:00 AM50 °FClear.3 mph88%30.04 "Hg4 mi
4:00 AM43 °FClear.No wind93%30.04 "Hg4 mi
3:00 AM45 °FClear.No wind87%30.04 "Hg10 mi
2:00 AM50 °FClear.1 mph88%30.04 "Hg10 mi
1:00 AM50 °FClear.3 mph88%30.04 "Hg10 mi
12:00 AM46 °FClear.1 mph87%30.07 "Hg10 mi
11:00 PM
Sun, Sep 25
48 °FClear.1 mph87%30.07 "Hg10 mi
10:00 PM48 °FClear.1 mph94%30.07 "Hg10 mi
9:00 PM50 °FClear.1 mph88%30.07 "Hg10 mi
8:00 PM54 °FClear.1 mph82%30.07 "Hg10 mi
7:00 PM55 °FClear.1 mph77%30.07 "Hg10 mi
6:00 PM59 °FClear.1 mph68%30.04 "Hg10 mi
5:00 PM64 °FSunny.1 mph56%30.04 "Hg10 mi
4:00 PM68 °FSunny.1 mph46%30.04 "Hg10 mi
3:00 PM68 °FPassing clouds.6 mph40%30.04 "HgN/A
2:00 PM68 °FPassing clouds.8 mph43%30.04 "HgN/A
1:00 PM68 °FPassing clouds.8 mph46%30.04 "HgN/A
12:00 PM68 °FSunny.8 mph46%30.04 "Hg10 mi
11:00 AM66 °FPassing clouds.6 mph52%30.04 "HgN/A
Weather by CustomWeather, © 2016

See weather overviewHow to use our weather pages